Location: Bailleul
(50.3375°N, 2.8513°E)
Time: 04:30:03
(UTC+00:00)

MOS 1 - Pass Details

Date: 19 April 2021
Orbit: 879 x 890 km, 99.1° (Epoch: 09 May)

Event Time Altitude Azimuth Distance (km) Brightness Sun altitude
Exits shadow 19:36:39 - 160° (SSE) 3,498 7.0 -7.7°
Rises 19:36:44 0° 160° (SSE) 3,465 6.9 -7.7°
Reaches altitude 10° 19:39:07 10° 160° (SSE) 2,530 6.2 -8.0°
Maximum altitude 19:44:45 84° 73° (ENE) 891 4.3 -8.8°
Drops below altitude 10° 19:50:26 10° 345° (NNW) 2,551 7.4 -9.6°
Sets 19:52:51 0° 345° (NNW) 3,495 8.2 -9.9°
